Logansport, IN

9:00 AM EDT on August 21, 2017 (GMT -0400)
Logansport Municipal

Weather History for KGGP - January, 2014

Change the Weather History Date:

Wednesday, January 8, 2014

  Actual Average Record
Temperature  
Mean Temperature 11 °F -  
Max Temperature 17 °F 35 °F 44 °F (2016)
Min Temperature 5 °F 24 °F -2 °F (2015)
Degree Days  
Heating Degree Days 54    
Moisture  
Dew Point 6 °F    
Average Humidity 76    
Maximum Humidity 86    
Minimum Humidity 67    
Precipitation  
Precipitation 0.00 in - - ()
Sea Level Pressure  
Sea Level Pressure 30.38 in    
Wind  
Wind Speed 4 mph (SSW)    
Max Wind Speed 8 mph    
Max Gust Speed -    
Visibility 9 miles    
Events Snow    
Averages and records for this station are not official NWS values.
T = Trace of Precipitation, MM = Missing Value Source: NWS Daily Summary

Daily Weather History Graph

Daily Weather History Graph

Search for Another Location

Airport or City:

Trip Planner

Search our weather history database for the weather conditions in past years. The results will help you decide how hot, cold, wet, or windy it might be!

Date:

Astronomy

Jan. 08, 2014 Rise Set
Actual Time 8:09 AM EST 5:35 PM EST
Civil Twilight 7:38 AM EST 6:05 PM EST
Nautical Twilight 7:04 AM EST 6:39 PM EST
Astronomical Twilight 6:31 AM EST 7:13 PM EST
Moon 12:28 PM EST (1/8) 1:13 AM EST (1/8)
Length of Visible Light 10h 27m
Length of Day
9h 26m
First Quarter, 56% of the Moon is Illuminated
Jan 8
First Quarter
Jan 15
Full
Jan 24
Last Quarter
Jan 30
New
Feb 6
First Quarter

Hourly Weather History & Observations

Time (EST) Temp. Windchill Dew Point Humidity Pressure Visibility Wind Dir Wind Speed Gust Speed Precip Events Conditions
12:15 AM 10.4 °F -0.4 °F 1.4 °F 67% 30.30 in 10.0 mi South 6.9 mph - N/A   Mostly Cloudy
12:35 AM 8.6 °F -1.3 °F -0.4 °F 67% 30.30 in 10.0 mi South 5.8 mph - N/A   Mostly Cloudy
12:55 AM 6.8 °F -3.5 °F -0.4 °F 72% 30.29 in 10.0 mi SSE 5.8 mph - N/A   Scattered Clouds
1:15 AM 5.0 °F -5.6 °F -2.2 °F 72% 30.29 in 10.0 mi SSE 5.8 mph - N/A   Clear
1:35 AM 6.8 °F -4.8 °F -0.4 °F 72% 30.29 in 10.0 mi SSE 6.9 mph - N/A   Clear
1:55 AM 6.8 °F -4.8 °F -0.4 °F 72% 30.30 in 10.0 mi South 6.9 mph - N/A   Clear
2:15 AM 6.8 °F -4.8 °F -0.4 °F 72% 30.30 in 10.0 mi South 6.9 mph - N/A   Clear
2:35 AM 6.8 °F -3.5 °F -0.4 °F 72% 30.30 in 10.0 mi South 5.8 mph - N/A   Clear
2:55 AM 8.6 °F -2.6 °F -0.4 °F 67% 30.31 in 10.0 mi South 6.9 mph - N/A   Clear
3:15 AM 6.8 °F -4.8 °F -0.4 °F 72% 30.31 in 10.0 mi SSE 6.9 mph - N/A   Scattered Clouds
3:35 AM 8.6 °F -1.3 °F 1.4 °F 73% 30.31 in 10.0 mi South 5.8 mph - N/A   Overcast
3:55 AM 8.6 °F 0.1 °F 1.4 °F 73% 30.31 in 10.0 mi South 4.6 mph - N/A   Overcast
4:15 AM 10.4 °F 4.0 °F 3.2 °F 73% 30.31 in 10.0 mi SSE 3.5 mph - N/A   Overcast
4:35 AM 10.4 °F - 3.2 °F 73% 30.31 in 10.0 mi Calm Calm - N/A   Overcast
4:55 AM 10.4 °F 4.0 °F 3.2 °F 73% 30.31 in 10.0 mi SSE 3.5 mph - N/A   Mostly Cloudy
5:15 AM 8.6 °F 2.0 °F 3.2 °F 79% 30.31 in 10.0 mi SSE 3.5 mph - N/A   Scattered Clouds
5:35 AM 8.6 °F 2.0 °F 3.2 °F 79% 30.30 in 10.0 mi SSE 3.5 mph - N/A   Clear
5:55 AM 8.6 °F -1.3 °F 1.4 °F 73% 30.30 in 10.0 mi SSE 5.8 mph - N/A   Clear
6:15 AM 6.8 °F -2.0 °F 1.4 °F 79% 30.30 in 10.0 mi SSE 4.6 mph - N/A   Clear
6:35 AM 6.8 °F -2.0 °F 1.4 °F 79% 30.31 in 10.0 mi SSE 4.6 mph - N/A   Clear
6:55 AM 5.0 °F -2.1 °F 1.4 °F 85% 30.31 in 10.0 mi SSE 3.5 mph - N/A   Clear
7:15 AM 5.0 °F -2.1 °F 1.4 °F 85% 30.31 in 10.0 mi SSE 3.5 mph - N/A   Scattered Clouds
7:35 AM 5.0 °F -2.1 °F 1.4 °F 85% 30.32 in 10.0 mi SSE 3.5 mph - N/A   Scattered Clouds
7:55 AM 5.0 °F -4.1 °F 1.4 °F 85% 30.32 in 10.0 mi SSE 4.6 mph - N/A   Scattered Clouds
8:15 AM 5.0 °F -2.1 °F 1.4 °F 85% 30.33 in 10.0 mi SSE 3.5 mph - N/A   Scattered Clouds
8:35 AM 5.0 °F - 1.4 °F 85% 30.34 in 10.0 mi Calm Calm - N/A   Clear
8:55 AM 6.8 °F - 1.4 °F 79% 30.35 in 10.0 mi Calm Calm - N/A   Scattered Clouds
9:15 AM 8.6 °F - 3.2 °F 79% 30.36 in 10.0 mi Calm Calm - N/A   Overcast
9:35 AM 8.6 °F - 3.2 °F 79% 30.36 in 10.0 mi Calm Calm - N/A   Overcast
9:55 AM 12.2 °F - 5.0 °F 73% 30.37 in 10.0 mi Calm Calm - N/A   Mostly Cloudy
10:15 AM 10.4 °F - 5.0 °F 79% 30.38 in 10.0 mi Calm Calm - N/A   Mostly Cloudy
10:35 AM 12.2 °F - 5.0 °F 73% 30.39 in 10.0 mi Calm Calm - N/A   Scattered Clouds
10:55 AM 14.0 °F 8.2 °F 6.8 °F 73% 30.39 in 10.0 mi South 3.5 mph - N/A   Scattered Clouds
11:15 AM 14.0 °F 8.2 °F 8.6 °F 79% 30.39 in 10.0 mi WSW 3.5 mph - N/A   Scattered Clouds
11:35 AM 14.0 °F 6.5 °F 8.6 °F 79% 30.38 in 10.0 mi WSW 4.6 mph - N/A   Scattered Clouds
11:55 AM 15.8 °F 8.6 °F 8.6 °F 73% 30.38 in 10.0 mi WSW 4.6 mph - N/A   Clear
12:15 PM 15.8 °F 8.6 °F 8.6 °F 73% 30.37 in 10.0 mi WSW 4.6 mph - N/A   Clear
12:35 PM 17.6 °F 10.7 °F 8.6 °F 68% 30.37 in 10.0 mi West 4.6 mph - N/A   Scattered Clouds
12:55 PM 17.6 °F 12.3 °F 8.6 °F 68% 30.36 in 10.0 mi WSW 3.5 mph - N/A   Scattered Clouds
1:15 PM 15.8 °F 10.2 °F 8.6 °F 73% 30.36 in 10.0 mi WSW 3.5 mph - N/A   Mostly Cloudy
1:35 PM 17.6 °F 12.3 °F 8.6 °F 68% 30.35 in 10.0 mi WSW 3.5 mph - N/A   Overcast
1:55 PM 17.6 °F - 8.6 °F 68% 30.36 in 10.0 mi Calm Calm - N/A   Overcast
2:15 PM 17.6 °F 10.7 °F 8.6 °F 68% 30.36 in 10.0 mi WSW 4.6 mph - N/A   Overcast
2:35 PM 17.6 °F 9.3 °F 10.4 °F 73% 30.36 in 10.0 mi SW 5.8 mph - N/A   Overcast
2:55 PM 17.6 °F 9.3 °F 10.4 °F 73% 30.37 in 7.0 mi WSW 5.8 mph - N/A   Overcast
3:15 PM 17.6 °F 7.3 °F 10.4 °F 73% 30.39 in 3.0 mi West 8.1 mph - N/A Snow Light Snow
3:35 PM 17.6 °F 8.2 °F 12.2 °F 79% 30.40 in 3.0 mi West 6.9 mph - N/A Snow Light Snow
3:55 PM 17.6 °F 7.3 °F 12.2 °F 79% 30.40 in 3.0 mi West 8.1 mph - N/A Snow Light Snow
4:15 PM 17.6 °F 9.3 °F 12.2 °F 79% 30.40 in 2.5 mi West 5.8 mph - N/A Snow Light Snow
4:35 PM 17.6 °F 9.3 °F 12.2 °F 79% 30.41 in 2.5 mi West 5.8 mph - N/A Snow Light Snow
4:55 PM 17.6 °F 8.2 °F 12.2 °F 79% 30.41 in 2.5 mi West 6.9 mph - N/A Snow Light Snow
5:15 PM 15.8 °F 8.6 °F 12.2 °F 86% 30.41 in 7.0 mi WNW 4.6 mph - N/A Snow Light Snow
5:35 PM 15.8 °F 8.6 °F 12.2 °F 86% 30.43 in 10.0 mi West 4.6 mph - N/A   Overcast
5:55 PM 15.8 °F 10.2 °F 10.4 °F 79% 30.44 in 10.0 mi West 3.5 mph - N/A   Overcast
6:15 PM 15.8 °F - 10.4 °F 79% 30.44 in 10.0 mi Calm Calm - N/A Snow Light Snow
6:35 PM 15.8 °F - 10.4 °F 79% 30.44 in 10.0 mi Calm Calm - N/A   Overcast
6:55 PM 15.8 °F 10.2 °F 10.4 °F 79% 30.45 in 10.0 mi NW 3.5 mph - N/A   Overcast
7:15 PM 15.8 °F 10.2 °F 10.4 °F 79% 30.45 in 10.0 mi NNW 3.5 mph - N/A   Overcast
7:35 PM 15.8 °F 7.2 °F 8.6 °F 73% 30.45 in 10.0 mi NNW 5.8 mph - N/A   Overcast
7:55 PM 14.0 °F 5.1 °F 8.6 °F 79% 30.46 in 10.0 mi NNW 5.8 mph - N/A   Overcast
8:15 PM 14.0 °F 8.2 °F 8.6 °F 79% 30.46 in 10.0 mi NNW 3.5 mph - N/A   Mostly Cloudy
8:35 PM 14.0 °F - 6.8 °F 73% 30.47 in 10.0 mi Calm Calm - N/A   Mostly Cloudy
8:55 PM 14.0 °F - 6.8 °F 73% 30.47 in 10.0 mi Calm Calm - N/A   Scattered Clouds
9:15 PM 12.2 °F - 6.8 °F 79% 30.48 in 10.0 mi Calm Calm - N/A   Clear
9:35 PM 10.4 °F - 5.0 °F 79% 30.49 in 10.0 mi Calm Calm - N/A   Clear
9:55 PM 10.4 °F - 5.0 °F 79% 30.49 in 10.0 mi Calm Calm - N/A   Scattered Clouds
10:15 PM 10.4 °F - 6.8 °F 85% 30.49 in 10.0 mi Calm Calm - N/A   Scattered Clouds
10:35 PM 10.4 °F 4.0 °F 5.0 °F 79% 30.50 in 10.0 mi North 3.5 mph - N/A   Clear
10:55 PM 10.4 °F 4.0 °F 5.0 °F 79% 30.50 in 10.0 mi North 3.5 mph - N/A   Clear
11:15 PM 10.4 °F - 5.0 °F 79% 30.50 in 10.0 mi Calm Calm - N/A   Clear
11:35 PM 10.4 °F - 5.0 °F 79% 30.50 in 10.0 mi Calm Calm - N/A   Clear
11:55 PM 10.4 °F - 5.0 °F 79% 30.50 in 10.0 mi Calm Calm - N/A   Clear